Regional Weather Roundup
Issued by NWS

Home | Current Version | Previous Version | Graphics & Text | Print | Product List | Glossary On
Versions: 1 2 3 4 5 6 7 8 9 10 11 12 13 14 15 16 17 18 19 20 21 22 23 24 25 26 27 28 29 30 31 32 33 34 35 36 37 38 39 40 41 42 43 44 45 46 47 48 49 50
000
ASUS43 KMKX 060521
RWRWI

WISCONSIN REGIONAL WEATHER ROUNDUP
NATIONAL WEATHER SERVICE MILWAUKEE/SULLIVAN WI
1100 PM CST MON DEC 05 2016

NOTE: "FAIR" INDICATES FEW OR NO CLOUDS BELOW 12,000 FEET WITH NO
SIGNIFICANT WEATHER AND/OR OBSTRUCTIONS TO VISIBILITY.

WIZ001-002-006>008-014>016-023>028-060600-
NORTHWEST WISCONSIN

CITY           SKY/WX    TMP DP  RH WIND       PRES   REMARKS
SUPERIOR ARPT  CLOUDY    36  32  87 SE5       29.65F WCI  32
ASHLAND        CLOUDY    37  31  78 MISG      29.71F
HAYWARD        CLOUDY    36  29  75 S10       29.68F WCI  28
SIREN          CLOUDY    36  31  83 S13G21    29.65S WCI  28
CUMBERLAND     LGT SNOW  34  30  86 S15       29.68S WCI  24
RICE LAKE      CLOUDY    35  31  83 SE15      29.71F WCI  25
CHETEK         CLOUDY    35  31  85 SE13G22   29.72S WCI  26
LADYSMITH      MOCLDY    35  31  85 SE8       29.75S WCI  28
EAU CLAIRE     CLOUDY    36  30  79 S16       29.74S WCI  26
MENOMONIE      DRIZZLE   35  32  88 E8        29.72F WCI  29
NEW RICHMOND   CLOUDY    36  33  88 S17       29.67F WCI  26
OSCEOLA        CLOUDY    37  32  83 S14G20    29.68F WCI  28
$$

WIZ003>005-009-010-017-018-060600-
NORTH CENTRAL WISCONSIN

CITY           SKY/WX    TMP DP  RH WIND       PRES   REMARKS
MANITOWISH WTR CLOUDY    33  32  96 SE8       29.75S WCI  26
ARBOR VITAE    CLOUDY    37  32  84 SW6       29.78R WCI  32
WOODRUFF       CLOUDY    37  32  84 SW6       29.78R WCI  32
RHINELANDER    MOCLDY    35  30  82 SE10      29.76F WCI  27
EAGLE RIVER    CLOUDY    34  32  92 SE8       29.76F WCI  27
LAND O LAKES   CLOUDY    35  32  90 SE8       29.78F WCI  28
PHILLIPS       PTCLDY    32  29  90 S9        29.74S WCI  24
TOMAHAWK       PTCLDY    32  28  88 CALM      29.79R
MEDFORD        CLOUDY    30  28  92 SE8       29.76F WCI  23
MERRILL        CLOUDY    32  31  96 S3        29.81R
$$

WIZ029-030-035-036-043>047-060600-
CENTRAL WISCONSIN

CITY           SKY/WX    TMP DP  RH WIND       PRES   REMARKS
WAUSAU         MOCLDY    31  29  92 SE10      29.80F WCI  22
MOSINEE        MOCLDY    32  32 100 SE9       29.82F FOG     WCI  24
MARSHFIELD     PTCLDY    31  29  92 S10       29.80R FOG     WCI  22
STEVENS POINT  CLOUDY    30  30 100 SE8       29.84F FOG     WCI  22
WAUPACA        CLOUDY    34  32  93 SE3       29.88S FOG
WAUTOMA        CLOUDY    32  31  96 SE12      29.88S WCI  23
WISC RAPIDS    PTCLDY    32  31  96 SE10      29.82F WCI  24
CAMP DOUGLAS   CLOUDY    32  32 100 SE10      29.82S WCI  24
$$

WIZ011>013-019>022-031-037>040-048>050-060600-
NORTHEAST WISCONSIN

CITY           SKY/WX    TMP DP  RH WIND       PRES   REMARKS
ANTIGO         CLOUDY    30  30 100 SE13      29.82F FOG     WCI  20
SHAWANO        CLOUDY    35  32  90 SE7       29.89S FOG     WCI  29
OCONTO         CLOUDY    34  32  92 SE7       29.91F WCI  28
STURGEON BAY   MOCLDY    36  36 100 SE8       29.91F FOG     WCI  29
GREEN BAY      MOCLDY    35  34  96 SE7       29.90F WCI  29
MANITOWOC      CLOUDY    38  35  89 S8        29.92F WCI  32
APPLETON       PTCLDY    32  32 100 SE9       29.85F WCI  24
CLINTONVILLE   CLOUDY    32  32 100 SE5       29.87F FOG     WCI  27
OSHKOSH        CLOUDY    33  30  88 S7        29.88F WCI  27
$$

WIZ032>034-041-042-053>061-060600-
SOUTHWEST WISCONSIN

CITY           SKY/WX    TMP DP  RH WIND       PRES   REMARKS
LA CROSSE      CLOUDY    36  31  82 S12       29.81R WCI  28
SPARTA         CLOUDY    33  31  92 SE6       29.81F WCI  28
VIROQUA        CLOUDY    32  32 100 SE12      29.79F WCI  23
BOSCOBEL       CLOUDY    34  31  88 CALM      29.86S
PRAIRIE DU CHI CLOUDY    33  30  88 SE8       29.84F WCI  27
PLATTEVILLE    CLOUDY    31  31 100 SE13      29.86S WCI  21
$$

WIZ056-057-062-063-064-067-068-060600-
SOUTH CENTRAL WISCONSIN

CITY           SKY/WX    TMP DP  RH WIND       PRES   REMARKS
REEDSBURG      CLOUDY    32  32  99 SE5       29.84F WCI  27
BARABOO/DELLS  CLOUDY    32  31  95 SE14      29.84F FOG     WCI  22
LONE ROCK      CLOUDY    33  30  88 SE9       29.87S WCI  25
MINERAL POINT  CLOUDY    32  32 100 SE15      29.85R FOG     WCI  22
MADISON        CLOUDY    31  30  96 S10       29.89S WCI  22
MIDDLETON      NOT AVBL
WATERTOWN      CLOUDY    31  31 100 SE7       29.90S FOG     WCI  25
MONROE         CLOUDY    30  30 100 SE12      29.88R FOG     WCI  21
JANESVILLE     CLOUDY    32  32 100 SE9       29.89F FOG     WCI  24
$$

WIZ051-052-058>065-066-070>072-060600-
SOUTHEAST WISCONSIN

CITY           SKY/WX    TMP DP  RH WIND       PRES   REMARKS
MILWAUKEE      CLOUDY    37  33  85 SE9       29.93S WCI  30
WAUKESHA       CLOUDY    32  32 100 SE12      29.92F FOG     WCI  23
MILWAUKEE/TIMM CLOUDY    34  32  93 SE8       29.94F FOG     WCI  27
RACINE         CLOUDY    37  32  82 S12       29.95F WCI  29
BURLINGTON     CLOUDY    31  30  97 SE8       29.92F FOG     WCI  23
KENOSHA        CLOUDY    34  32  92 S9        29.93F FOG     WCI  27
FOND DU LAC    CLOUDY    33  29  85 S13       29.90S WCI  24
SHEBOYGAN      CLOUDY    34  31  88 S3        29.92F FOG
WEST BEND      CLOUDY    32  32 100 SE3       29.91F FOG
JUNEAU         CLOUDY    31  30  96 SE9       29.90F FOG     WCI  23
$$

LSZ147-162-060600-
LAKE SUPERIOR

STATION/POSITION TIME  TEMP    WIND        PRES    WAVE
                       AIR SEA DIR/SP/G            HT/PER
                 (UTC) (F)     (DEG/KT/KT) (MB)    (FT/S)
DEVILS ISLAND    0500   40     150/  9/ 14 1006.6F
PORT WING        0430   38     130/  4/ 10 1005.8S
SAXON HARBOR     0440   40     170/  2/  8 1006.8R
$$

LMZ867-665-643>646-060600-
LAKE MICHIGAN

STATION/POSITION TIME  TEMP    WIND        PRES    WAVE
                       AIR SEA DIR/SP/G            HT/PER
                 (UTC) (F)     (DEG/KT/KT) (MB)    (FT/S)
CHAMBERS ISLAND  0440   37     170/  5/ 12 1013.5R
NORTHPORT PIER   0440   37     150/  5/  7 1013.9F
SISTER BAY       0423   35     180/  8/ 10   N/A
ALGOMA LAKESHORE 0236             CALM       N/A
KEWAUNEE LAKESHO 0454   40     170/ 16/ 18 1012.8F
SHEBOYGAN LAKESH 0500   40     170/ 17/ 19 1013.3F
PORT WASHINGTON  0440   40     170/ 15/ 18 1014.2F
MILWAUKEE LAKESH 0500   38     170/ 14/ 17   N/A
KENOSHA   LAKESH 0500   37     170/ 17/ 21 1013.2
$$

TC  - TEMPERATURE IN CELSIUS
VSB - VISIBILITY IN STATUTE MILES
WCI - WIND CHILL INDEX
HX  - HEAT INDEX





USA.gov is the U.S. government's official web portal to all federal, state and local government web resources and services.